Location: Unspecified
(43.3830°N, 0.0000°E)
Time: 09:31:32
(UTC+00:00)

N. Korean satellite - Pass Details

Date: 26 November 2020
Orbit: 453 x 502 km, 97.2° (Epoch: 16 January)

Event Time Altitude Azimuth Distance (km) Brightness Sun altitude
Rises 16:57:31 0° 179° (S) 2,451 10.5 -5.8°
Reaches altitude 10° 16:59:35 10° 185° (S) 1,584 9.6 -6.1°
Maximum altitude 17:02:52 47° 260° (W) 612 7.7 -6.7°
Drops below altitude 10° 17:06:13 10° 336° (NNW) 1,607 9.2 -7.2°
Sets 17:08:19 0° 343° (NNW) 2,492 10.1 -7.6°
